Weather History for Burnet, TX

Change the Weather History Date:

Sunday, December 30, 2012

  Actual Average Record
Temperature  
Mean Temperature 36 °F -  
Max Temperature 44 °F 57 °F 73 °F (1999)
Min Temperature 28 °F 36 °F 24 °F (2000)
Degree Days  
Heating Degree Days 29    
Moisture  
Dew Point 23 °F    
Average Humidity 55    
Maximum Humidity 67    
Minimum Humidity 40    
Precipitation  
Precipitation 0.00 in - - ()
Sea Level Pressure  
Sea Level Pressure 30.34 in    
Wind  
Wind Speed 5 mph (ESE)    
Max Wind Speed 10 mph    
Max Gust Speed -    
Visibility 10 miles    
Events Rain    
Averages and records for this station are not official NWS values.
T = Trace of Precipitation, MM = Missing Value Source: NWS Daily Summary

Daily Weather History Graph

Daily Weather History Graph

Search for Another Location

Airport:

Trip Planner

Search our weather history database for the weather conditions in past years. The results will help you decide how hot, cold, wet, or windy it might be!

Date:

Astronomy

Dec. 30, 2012 Rise Set
Actual Time 7:30 AM CST 5:41 PM CST
Civil Twilight 7:03 AM CST 6:08 PM CST
Nautical Twilight 6:33 AM CST 6:38 PM CST
Astronomical Twilight 6:04 AM CST 7:07 PM CST
Moon 8:03 PM CST (12/30) 8:49 AM CST (12/30)
Length of Visible Light 11h 04m
Length of Day
10h 11m
Waning Gibbous, 95% of the Moon is Illuminated
Dec 30
Waning Gibbous
Jan 4
Last Quarter
Jan 11
New
Jan 18
First Quarter
Jan 26
Full

Hourly Weather History & Observations

Time (CST) Temp. Windchill Dew Point Humidity Pressure Visibility Wind Dir Wind Speed Gust Speed Precip Events Conditions
12:53 AM 30.0 °F 26.5 °F 18.0 °F 61% 30.43 in 10.0 mi NE 3.5 mph - N/A   Clear
1:53 AM 30.0 °F 26.5 °F 18.0 °F 61% 30.42 in 10.0 mi NNE 3.5 mph - N/A   Clear
2:53 AM 32.0 °F 28.7 °F 19.0 °F 59% 30.42 in 10.0 mi NNE 3.5 mph - N/A   Clear
3:53 AM 28.0 °F 24.2 °F 18.0 °F 66% 30.42 in 10.0 mi NE 3.5 mph - N/A   Clear
4:53 AM 28.9 °F - 19.0 °F 67% 30.42 in 10.0 mi Calm Calm - N/A   Clear
5:53 AM 28.9 °F - 19.0 °F 67% 30.42 in 10.0 mi Calm Calm - N/A   Clear
6:53 AM 35.1 °F - 21.0 °F 57% 30.43 in 10.0 mi Calm Calm - N/A   Clear
7:53 AM 34.0 °F 29.8 °F 21.0 °F 59% 30.42 in 10.0 mi East 4.6 mph - N/A   Clear
8:53 AM 37.0 °F 32.4 °F 21.0 °F 52% 30.44 in 10.0 mi SE 5.8 mph - N/A   Clear
9:53 AM 39.0 °F 34.0 °F 19.0 °F 45% 30.45 in 10.0 mi SE 6.9 mph - N/A   Clear
10:53 AM 41.0 °F 35.8 °F 19.0 °F 41% 30.43 in 10.0 mi SSE 8.1 mph - N/A   Clear
11:53 AM 42.1 °F 36.1 °F 19.0 °F 40% 30.40 in 10.0 mi SE 10.4 mph - N/A   Clear
12:53 PM 39.0 °F 34.0 °F 24.1 °F 55% 30.38 in 10.0 mi SSE 6.9 mph - 0.00 in Rain Light Rain
1:53 PM 39.0 °F 34.8 °F 26.1 °F 60% 30.33 in 10.0 mi East 5.8 mph - 0.00 in   Overcast
2:53 PM 41.0 °F 36.4 °F 25.0 °F 53% 30.30 in 10.0 mi ESE 6.9 mph - N/A   Clear
3:53 PM 43.0 °F 38.2 °F 23.0 °F 45% 30.29 in 10.0 mi ESE 8.1 mph - N/A   Clear
4:53 PM 44.1 °F 40.8 °F 23.0 °F 43% 30.28 in 10.0 mi SE 5.8 mph - N/A   Mostly Cloudy
5:53 PM 43.0 °F 40.3 °F 25.0 °F 49% 30.25 in 10.0 mi ESE 4.6 mph - N/A   Scattered Clouds
6:53 PM 43.0 °F 38.8 °F 25.0 °F 49% 30.24 in 10.0 mi East 6.9 mph - N/A   Overcast
7:53 PM 44.1 °F 39.5 °F 27.0 °F 51% 30.22 in 10.0 mi East 8.1 mph - N/A   Overcast
8:43 PM 44.1 °F 39.5 °F 28.0 °F 53% 30.21 in 10.0 mi ESE 8.1 mph - N/A   Overcast
8:53 PM 44.1 °F 39.5 °F 28.9 °F 55% 30.22 in 10.0 mi ESE 8.1 mph - N/A   Overcast
9:53 PM 44.1 °F 39.5 °F 30.9 °F 60% 30.22 in 10.0 mi SE 8.1 mph - N/A   Overcast
10:53 PM 44.1 °F 41.5 °F 32.0 °F 63% 30.21 in 10.0 mi East 4.6 mph - N/A   Overcast
11:53 PM 44.1 °F 40.1 °F 33.1 °F 65% 30.17 in 10.0 mi ESE 6.9 mph - N/A   Overcast